Location: Dal�� Lhota
(48.7500°N, 14.0167°E)
Time: 18:25:07
(UTC+00:00)

Explorer 7 - Pass Details

Date: 01 August 2021
Orbit: 484 x 676 km, 50.3° (Epoch: 21 September)

Event Time Altitude Azimuth Distance (km) Brightness Sun altitude
Rises 05:15:38 0° 247° (WSW) 2,566 9.6 14.3°
Reaches altitude 10° 05:17:45 10° 246° (WSW) 1,703 8.8 14.6°
Maximum altitude 05:21:36 78° 161° (SSE) 532 7.1 15.2°
Drops below altitude 10° 05:25:40 10° 75° (ENE) 1,798 12.1 15.9°
Sets 05:27:58 0° 74° (ENE) 2,726 12.1 16.3°
